app download

Gachirin ni Kiri Saku

Gachirin ni Kiri Saku
Rating: 9.1 of 89557 person votes
Rank 145 /20,1487
Alternative: 月下斬魔之花;月輪に斬り咲く;Getsurin ni Kirisaku;Killing Blooms Under the Rounded Moon;Saku Kills on the Full Moon;Sword-Slicing Blossoms When the Moon is Full;
Artists: Maruyama Tomo
Author(s): Maruyama Tomo
Genres: SupernaturalActionSeinenEcchiMaturehorrorMartial arts
Release: 2015
Status: Ongoing
Summary:

From MangaHelpers:

A new transfer student has come into town, a girl with a mysterious air and black clothing who is called Inugami Sakuya. What few know is that by moonlight, she hunts and kills those possessed by "Inugami." A man can become possessed by being bitten, leading to a nighttime transformation into a beast driven to eat women. Sakuya gets no thanks for brutally ending the lives of these unfortunate men with her sword, and she is often too late to save the women they threaten. Sakuya also must deal with her own inner demons, which are all too real... [tethysdust]

vol.7 ch.51 : Eternal Union- END 45 Pages 2016-01-05 04:46:00
vol.7 ch.50 : Beast of Despair 35 Pages 2015-12-31 05:47:00
vol.7 ch.49 v2 : Dream Flower 14 Pages 2016-01-05 04:45:00
vol.7 ch.49 : Dream Flower 14 Pages 2015-12-26 23:13:00
vol.7 ch.48 v2 : Beast of Love 16 Pages 2016-01-05 04:44:00
vol.7 ch.48 : Beast of Love 16 Pages 2015-12-23 13:22:00
vol.7 ch.47 v2 : Sword Dance Under the Moon 14 Pages 2016-01-05 04:43:00
vol.7 ch.47 : Sword Dance Under the Moon 14 Pages 2015-12-23 13:19:00
vol.7 ch.46 v2 : Moonlight Dream 15 Pages 2016-01-05 04:42:00
vol.7 ch.46 : Moonlight Dream 15 Pages 2015-12-23 13:19:00
vol.7 ch.45 v2 : The Crossing of Swords 26 Pages 2016-01-05 04:42:00
vol.7 ch.45 : The Crossing of Swords 26 Pages 2015-12-23 13:18:00
vol.7 ch.44 21 Pages 2015-12-08 04:51:00
vol.7 ch.43 : RETURN 32 Pages 2015-12-08 04:50:00
vol.6 ch.42 17 Pages 2015-12-07 09:12:00
vol.6 ch.41 19 Pages 2015-11-09 03:34:00
vol.6 ch.40 24 Pages 2015-09-22 05:41:00
vol.6 ch.39 : Visions of Becoming Human ~The Gentle Beast~ 26 Pages 2015-07-01 03:22:00
vol.6 ch.38 : Visions of Becoming Human ~The Footsteps of Darkness~ 21 Pages 2015-06-05 04:22:00
vol.6 ch.37 : Visions of Becoming Human ~The Eight Daggers~ 31 Pages 2015-04-14 17:44:00
vol.6 ch.36 : Visions of Becoming Human ~Orinomiya~ 21 Pages 2015-03-16 08:18:00
vol.6 ch.35 : Visions of Becoming Human ~That Which is Not Human~ 25 Pages 2015-01-29 01:14:00
vol.6 ch.34 : Visions of Becoming Human ~The Shirachigo Spell 30 Pages 2014-12-29 07:53:00
vol.5 ch.33 : Visions of Becoming Human 1 26 Pages 2014-11-12 13:17:00
vol.5 ch.32 : The Lightless Abyss 21 Pages 2014-11-01 03:35:00
vol.5 ch.31 : Sakuou Temple 21 Pages 2014-10-31 19:13:00
vol.5 ch.30 : A Parting of Ways 17 Pages 2014-10-07 22:45:00
vol.5 ch.29 : In the Sky of Scattered Autumn Leaves 21 Pages 2014-09-19 03:16:00
vol.5 ch.28 : Demon Blood Makeup 25 Pages 2014-09-15 04:55:00
vol.5 ch.27 : Corpse 27 Pages 2014-09-05 04:24:00
vol.5 ch.26 : Wind and Rock 34 Pages 2014-08-23 19:26:00
vol.4 ch.25 : Thoughts of the Full Moon 29 Pages 2014-06-15 06:15:00
vol.4 ch.24 : Disaster 14 Pages 2014-05-28 02:54:00
vol.4 ch.23 : Imprisonment 31 Pages 2014-05-12 02:20:00
vol.4 ch.22 : The Hell of Abyssal Suppression 31 Pages 2014-04-29 04:45:00
vol.4 ch.21 : The Nested Priestess 30 Pages 2014-04-15 03:57:00
vol.4 ch.20 : The Priestess Deceived 25 Pages 2014-03-23 10:19:00
vol.4 ch.19 : Wild Dance Under The Moon 35 Pages 2014-02-18 20:55:00
vol.3 ch.18 : Maki versus Ancient Dogs 30 Pages 2014-01-08 22:53:00
vol.3 ch.17 : The Devouring of Heretics 28 Pages 2013-12-25 18:42:00
vol.3 ch.16 : Scampering Mountain Bandits 29 Pages 2013-12-02 01:51:00
vol.3 ch.15 : The Three Vessels 28 Pages 2013-11-26 06:06:00
vol.3 ch.14 : Inner Conflict Girl: Last Part 25 Pages 2013-11-18 01:14:00
vol.3 ch.13 : Inner Conflict Girl First Part 22 Pages 2013-11-03 07:29:00
vol.3 ch.12 v2 : Flight 33 Pages 2013-08-01 01:52:00
vol.3 ch.12 : Flight 33 Pages 2013-08-01 01:52:00
vol.2 ch.11 : Deep-Seated Delusion 32 Pages 2013-05-03 22:46:00
vol.2 ch.10 : Night Attack 31 Pages 2013-04-20 00:00:00
vol.2 ch.9 : Possession 33 Pages 2013-04-09 00:00:00
vol.2 ch.8 : Attachment 29 Pages 2013-03-24 00:00:00
vol.2 ch.7 : Resolve 28 Pages 2013-03-15 00:00:00
vol.2 ch.6 : Chance Meeting 34 Pages 2013-03-10 00:00:00
vol.1 ch.5 : Hifumi 39 Pages 2013-02-20 00:00:00
vol.1 ch.4 : Crimson Forest 29 Pages 2013-01-29 00:00:00
vol.1 ch.3 : Dog Bite 33 Pages 2013-01-20 00:00:00
vol.1 ch.2 : Dogs Taken Form 34 Pages 2013-01-07 00:00:00
vol.1 ch.1 : Forest Hell 52 Pages 2013-04-20 00:00:00
vol.07 ch.51 : Eternal Union- END 45 Pages 2016-01-05 11:30:00
vol.07 ch.50 v2 : Beast of Despair 35 Pages 2016-01-05 11:32:00
vol.07 ch.50 : Beast of Despair 35 Pages 2015-12-31 05:30:00
vol.07 ch.49 v2 : Dream Flower 14 Pages 2016-01-05 11:33:00
vol.07 ch.49 : Dream Flower 14 Pages 2015-12-26 23:03:00
vol.07 ch.48 v2 : Beast of Love 16 Pages 2016-01-05 11:34:00
vol.07 ch.48 : Beast of Love 16 Pages 2015-12-23 13:22:00
vol.07 ch.47 v2 : Sword Dance Under the Moon 14 Pages 2016-01-05 11:35:00
vol.07 ch.47 : Sword Dance Under the Moon 14 Pages 2015-12-23 13:18:00
vol.07 ch.46 v2 : Moonlight Dream 15 Pages 2016-01-05 11:36:00
vol.07 ch.46 : Moonlight Dream 15 Pages 2015-12-23 13:18:00
vol.07 ch.45 : The Crossing of Swords 26 Pages 2015-12-11 05:52:00
vol.07 ch.44 : CLASH 21 Pages 2015-12-08 04:42:00
vol.07 ch.43 : RETURN 32 Pages 2015-12-07 08:56:00
vol.07 ch.42 : Speculation 17 Pages 2015-12-03 07:43:00
vol.07 ch.41 : Stillness 19 Pages 2015-11-09 03:38:00
vol.06 ch.40 : In the Abyss 24 Pages 2015-09-22 05:15:00
vol.06 ch.39 : Visions of Becoming Human ~The Gentle Beast~ 26 Pages 2015-07-25 09:44:00
vol.06 ch.38 : Visions of Becoming Human ~The Footsteps of Darkness~ 21 Pages 2015-06-05 03:58:00
vol.06 ch.37 : Visions of Becoming Human ~The Eight Daggers~ 31 Pages 2015-04-14 17:07:00
vol.06 ch.36 (v2) : Visions of Becoming Human ~Orinomiya~ 21 Pages 2015-03-16 00:13:00
vol.06 ch.35 : Visions of Becoming Human ~That Which is Not Human~ 25 Pages 2015-01-29 01:00:00
vol.06 ch.34 : Visions of Becoming Human ~The Shirachigo Spell 30 Pages 2014-12-29 07:48:00
vol.6 ch.40 : In the Abyss 24 Pages 2015-09-22 05:15:00
vol.6 ch.39 : Visions of Becoming Human ~The Gentle Beast~ 26 Pages 2015-07-25 09:44:00
vol.6 ch.38 : Visions of Becoming Human ~The Footsteps of Darkness~ 21 Pages 2015-06-05 03:58:00
vol.6 ch.37 : Visions of Becoming Human ~The Eight Daggers~ 31 Pages 2015-04-14 17:07:00
vol.6 ch.36--v2- : Visions of Becoming Human ~Orinomiya~ 21 Pages 2015-03-16 00:13:00
vol.6 ch.35 : Visions of Becoming Human ~That Which is Not Human~ 25 Pages 2015-01-29 01:00:00
vol.6 ch.34 : Visions of Becoming Human ~The Shirachigo Spell 30 Pages 2014-12-29 07:48:00
vol.5 ch.33 : Visions of Becoming Human 1 26 Pages 2014-11-12 13:06:00
vol.5 ch.32 : The Lightless Abyss 21 Pages 2014-11-01 03:21:00
vol.5 ch.31 : Sakuou Temple 21 Pages 2014-10-31 19:10:00
vol.5 ch.30 : A Parting of Ways 17 Pages 2014-10-07 22:38:00
vol.5 ch.29 : In the Sky of Scattered Autumn Leaves 21 Pages 2014-09-19 03:03:00
vol.5 ch.28 : Demon Blood Makeup 25 Pages 2014-09-15 04:33:00
vol.5 ch.27 : Corpse 27 Pages 2014-09-05 04:20:00
vol.5 ch.26 : Wind and Rock 34 Pages 2014-08-23 19:12:00
vol.05 ch.33 : Visions of Becoming Human 1 26 Pages 2014-11-12 13:06:00
vol.05 ch.32 : The Lightless Abyss 21 Pages 2014-11-01 03:21:00
vol.05 ch.31 : Sakuou Temple 21 Pages 2014-10-31 19:10:00
vol.05 ch.30 : A Parting of Ways 17 Pages 2014-10-07 22:38:00
vol.05 ch.29 : In the Sky of Scattered Autumn Leaves 21 Pages 2014-09-19 03:03:00
vol.05 ch.28 : Demon Blood Makeup 25 Pages 2014-09-15 04:33:00
vol.05 ch.27 : Corpse 27 Pages 2014-09-05 04:20:00
vol.05 ch.26 : Wind and Rock 34 Pages 2014-08-23 19:12:00
vol.4 ch.25 : Thoughts of the Full Moon 29 Pages 2014-06-15 06:07:00
vol.4 ch.24 : Disaster 14 Pages 2014-05-28 02:45:00
vol.4 ch.23 : Imprisonment 31 Pages 2014-05-12 02:17:00
vol.4 ch.22 : The Hell of Abyssal Suppression 31 Pages 2014-04-29 04:33:00
vol.4 ch.21 : The Nested Priestess 30 Pages 2014-04-15 04:04:00
vol.4 ch.20 : The Priestess Deceived 26 Pages 2014-03-21 07:03:00
vol.4 ch.19 : Wild Dance Under The Moon 35 Pages 2014-02-18 21:35:00
vol.04 ch.25 : Thoughts of the Full Moon 29 Pages 2014-06-15 06:07:00
vol.04 ch.24 : Disaster 14 Pages 2014-05-28 02:45:00
vol.04 ch.23 : Imprisonment 31 Pages 2014-05-12 02:17:00
vol.04 ch.22 : The Hell of Abyssal Suppression 31 Pages 2014-04-29 04:33:00
vol.04 ch.21 : The Nested Priestess 30 Pages 2014-04-15 04:04:00
vol.04 ch.20 : The Priestess Deceived 26 Pages 2014-03-21 07:03:00
vol.04 ch.19 : Wild Dance Under The Moon 35 Pages 2014-02-18 21:35:00
vol.3 ch.18 : Maki versus Ancient Dogs 30 Pages 2014-01-08 22:25:00
vol.3 ch.17 : The Devouring of Heretics 28 Pages 2013-12-25 18:11:00
vol.3 ch.16 : Scampering Mountain Bandits 29 Pages 2013-12-02 01:38:00
vol.3 ch.15 : The Three Vessels 28 Pages 2013-11-26 05:52:00
vol.3 ch.14 : Inner Conflict Girl Last Part 25 Pages 2013-11-17 23:21:00
vol.3 ch.13 : Inner Conflict Girl First Part 22 Pages 2013-11-03 06:20:00
vol.3 ch.12 : Flight 33 Pages 2013-08-01 01:50:00
vol.03 ch.18 : Maki versus Ancient Dogs 30 Pages 2014-01-08 22:25:00
vol.03 ch.17 : The Devouring of Heretics 28 Pages 2013-12-25 18:11:00
vol.03 ch.16 : Scampering Mountain Bandits 29 Pages 2013-12-02 01:38:00
vol.03 ch.15 : The Three Vessels 28 Pages 2013-11-26 05:52:00
vol.03 ch.14 : Inner Conflict Girl Last Part 25 Pages 2013-11-17 23:21:00
vol.03 ch.13 : Inner Conflict Girl First Part 22 Pages 2013-11-03 06:20:00
vol.03 ch.12 : Flight 33 Pages 2013-08-01 01:50:00
vol.02 ch.11 : Deep-Seated Delusion 32 Pages 2013-05-03 10:08:00
vol.02 ch.10 : Night Attack 31 Pages 2013-04-21 10:08:00
vol.02 ch.09 : Possession 33 Pages 2013-04-14 10:08:00
vol.02 ch.08 : Attachment 29 Pages 2013-03-24 06:46:00
vol.02 ch.07 : Resolve 28 Pages 2013-03-15 02:35:00
vol.02 ch.06 : Chance Meeting 34 Pages 2013-03-09 13:40:00
vol.2 ch.11 : Deep-Seated Delusion 32 Pages 2013-05-03 10:08:00
vol.2 ch.10 : Night Attack 31 Pages 2013-04-21 10:08:00
vol.2 ch.9 : Possession 33 Pages 2013-04-14 10:08:00
vol.2 ch.8 : Attachment 29 Pages 2013-03-24 06:46:00
vol.2 ch.7 : Resolve 28 Pages 2013-03-15 02:35:00
vol.2 ch.6 : Chance Meeting 34 Pages 2013-03-09 13:40:00
vol.1 ch.5 : Hifumi 39 Pages 2013-02-20 07:51:00
vol.1 ch.4 : Crimson Forest 29 Pages 2013-01-29 06:40:00
vol.1 ch.3 : Dog Bite 33 Pages 2013-01-20 08:34:00
vol.1 ch.2 : Dogs Taken Form 34 Pages 2013-01-07 02:39:00
vol.1 ch.1 : Forest Hell 52 Pages 2013-01-02 09:12:00
vol.01 ch.05 : Hifumi 39 Pages 2013-02-20 07:51:00
vol.01 ch.04 : Crimson Forest 29 Pages 2013-01-29 06:40:00
vol.01 ch.03 : Dog Bite 33 Pages 2013-01-20 08:34:00
vol.01 ch.02 : Dogs Taken Form 34 Pages 2013-01-07 02:39:00
vol.01 ch.01 : Forest Hell 52 Pages 2013-01-02 09:12:00
ch.50 v2 : Beast of Despair 35 Pages 2016-01-05 06:26:00
ch.50 : Beast of Despair 35 Pages 2015-12-31 07:03:00
ch.49 v2 : Dream Flower 14 Pages 2016-01-05 05:25:00
ch.49 : Dream Flower 14 Pages 2015-12-31 06:02:00
ch.48 v2 : Beast of Love 16 Pages 2016-01-05 05:19:00
ch.48 : Beast of Love 16 Pages 2015-12-23 15:59:00
ch.47 v2 : Sword Dance Under the Moon 14 Pages 2016-01-05 05:17:00
ch.47 : Sword Dance Under the Moon 14 Pages 2015-12-23 13:32:00
ch.46 v2 : Moonlight Dream 15 Pages 2016-01-05 05:12:00
ch.46 : Moonlight Dream 15 Pages 2015-12-23 13:30:00
ch.45 v2 : The Crossing of Swords 26 Pages 2016-01-05 05:48:00
ch.45 : The Crossing of Swords 26 Pages 2015-12-23 13:30:00
ch.44 21 Pages 2015-12-11 06:35:00
ch.43 32 Pages 2015-12-08 05:03:00
ch.42 17 Pages 2015-12-07 09:23:00
ch.41 19 Pages 2015-11-09 03:57:00
ch.40 : In the Abyss 24 Pages 2015-11-09 03:53:00
ch.39 : Visions of Becoming Human ~The Gentle Beast~ 26 Pages 2015-09-22 05:46:00
ch.38 : Visions of Becoming Human ~The Footsteps of Darkness~ 21 Pages 2015-06-05 04:34:00
ch.37 : Visions of Becoming Human ~The Eight Daggers~ 31 Pages 2015-04-20 10:28:00
ch.36 : Visions of Becoming Human ~Orinomiya~ 21 Pages 2015-04-27 13:05:00
ch.35 : Visions of Becoming Human ~That Which is Not Human~ 25 Pages 2015-04-27 13:04:00
ch.34 : Visions of Becoming Human ~The Shirachigo Spell 30 Pages 2015-04-27 13:03:00
ch.33 : Visions of Becoming Human 1 26 Pages 2015-04-27 13:02:00
ch.32 : The Lightless Abyss 21 Pages 2015-04-27 13:01:00
ch.31 : Sakuou Temple 21 Pages 2015-04-27 13:01:00
ch.30 : A Parting of Ways 17 Pages 2015-04-27 13:00:00
ch.29 : In the Sky of Scattered Autumn Leaves 21 Pages 2015-04-27 13:00:00
ch.28 : Demon Blood Makeup 25 Pages 2015-04-27 12:59:00
ch.27 : Corpse 27 Pages 2015-04-27 12:57:00
ch.26 : Wind and Rock 34 Pages 2015-04-27 12:56:00
ch.25 : Thoughts of the Full Moon 29 Pages 2015-04-27 12:56:00
ch.24 : Disaster 14 Pages 2015-04-27 12:55:00
ch.23 : Imprisonment 31 Pages 2015-04-27 12:54:00
ch.22 : The Hell of Abyssal Suppression 31 Pages 2015-04-27 12:53:00
ch.21 : The Nested Priestess 30 Pages 2015-04-27 12:52:00
ch.20 : The Priestess Deceived 26 Pages 2015-04-27 12:52:00
ch.19 : Wild Dance Under The Moon 35 Pages 2015-04-27 12:51:00
ch.18 : Maki versus Ancient Dogs 30 Pages 2015-04-27 12:50:00
ch.17 : The Devouring of Heretics 28 Pages 2015-04-27 12:49:00
ch.16 : Scampering Mountain Bandits 29 Pages 2015-04-27 12:48:00
ch.15 : The Three Vessels 28 Pages 2015-04-27 12:47:00
ch.14 : Inner Conflict Girl Last Part 25 Pages 2015-04-27 12:46:00
ch.13 : Inner Conflict Girl First Part 22 Pages 2015-04-27 12:46:00
ch.12 : Flight 33 Pages 2015-04-27 12:45:00
ch.11 : Deep-Seated Delusion 32 Pages 2015-04-27 12:44:00
ch.10 : Night Attack 31 Pages 2015-04-27 12:43:00
ch.9 : Possession 33 Pages 2015-04-27 12:42:00
ch.8 : Attachment 29 Pages 2015-04-27 12:41:00
ch.7 : Resolve 28 Pages 2015-04-27 12:40:00
ch.6 : Chance Meeting 34 Pages 2015-04-27 12:39:00
ch.5 : Hifumi 39 Pages 2015-04-27 12:38:00
ch.4 : Crimson Forest 29 Pages 2015-04-27 12:37:00
ch.3 : Dog Bite 33 Pages 2015-04-27 12:36:00
ch.2 : Dogs Taken Form 34 Pages 2015-04-27 12:35:00
ch.1 : Forest Hell 52 Pages 2015-04-27 12:34:00

RELATIVE MANGA